Weather History for Robinson, IL

Change the Weather History Date:

Saturday, December 17, 2011

  Actual Average (KLWV) Record (KLWV)
Temperature  
Mean Temperature 32 °F 34 °F  
Max Temperature 41 °F 41 °F 64 °F (2006)
Min Temperature 24 °F 26 °F 0 °F (2000)
Degree Days  
Heating Degree Days 32 31  
Month to date heating degree days 484  
Since 1 July heating degree days 1342  
Cooling Degree Days 0 0  
Month to date cooling degree days 0  
Year to date cooling degree days 1387  
Moisture  
Dew Point 27 °F    
Average Humidity 81    
Maximum Humidity 93    
Minimum Humidity 63    
Precipitation  
Precipitation 0.00 in 0.08 in 1.15 in (2001)
Month to date precipitation 1.81  
Year to date precipitation 42.30  
Sea Level Pressure  
Sea Level Pressure 30.33 in    
Wind  
Wind Speed 4 mph (SSW)    
Max Wind Speed 14 mph    
Max Gust Speed 18 mph    
Visibility 8 miles    
Events      
T = Trace of Precipitation, MM = Missing Value Source: NWS Daily Summary

Daily Weather History Graph

Daily Weather History Graph

Search for Another Location

Airport:

Trip Planner

Search our weather history database for the weather conditions in past years. The results will help you decide how hot, cold, wet, or windy it might be!

Date:

Astronomy

Dec. 17, 2011 Rise Set
Actual Time 7:03 AM CST 4:29 PM CST
Civil Twilight 6:33 AM CST 4:59 PM CST
Nautical Twilight 5:59 AM CST 5:33 PM CST
Astronomical Twilight 5:27 AM CST 6:05 PM CST
Moon No Moon Rise 11:21 AM CST (12/17)
Length of Visible Light 10h 26m
Length of Day
9h 26m
Waning Gibbous, 53% of the Moon is Illuminated
Dec 17
Waning Gibbous
Dec 17
Last Quarter
Dec 24
New
Jan 1
First Quarter
Jan 9
Full

Hourly Weather History & Observations

Time (CST) Temp. Windchill Dew Point Humidity Pressure Visibility Wind Dir Wind Speed Gust Speed Precip Events Conditions
12:15 AM 27.3 °F 23.4 °F 24.8 °F 90% 30.39 in 7.0 mi West 3.5 mph - N/A   Clear
12:55 AM 26.8 °F - 24.6 °F 92% 30.38 in 7.0 mi Calm Calm - N/A   Clear
1:15 AM 26.4 °F - 24.1 °F 91% 30.36 in 5.0 mi Calm Calm - N/A   Clear
1:35 AM 25.3 °F - 23.0 °F 91% 30.36 in 5.0 mi Calm Calm - N/A   Clear
1:55 AM 25.5 °F 21.3 °F 23.5 °F 92% 30.38 in 5.0 mi WNW 3.5 mph - N/A   Clear
2:15 AM 26.6 °F 22.6 °F 24.4 °F 92% 30.39 in 5.0 mi NW 3.5 mph - N/A   Clear
2:35 AM 26.4 °F - 24.3 °F 92% 30.38 in 5.0 mi Calm Calm - N/A   Clear
2:55 AM 25.2 °F - 23.0 °F 91% 30.38 in 5.0 mi Calm Calm - N/A   Clear
3:15 AM 25.2 °F - 23.0 °F 91% 30.37 in 5.0 mi Calm Calm - N/A   Scattered Clouds
3:35 AM 25.0 °F - 23.0 °F 92% 30.38 in 5.0 mi Calm Calm - N/A   Mostly Cloudy
3:55 AM 24.4 °F - 22.5 °F 92% 30.38 in 5.0 mi Calm Calm - N/A   Scattered Clouds
4:15 AM 24.4 °F - 22.3 °F 91% 30.39 in 5.0 mi Calm Calm - N/A   Scattered Clouds
4:35 AM 25.0 °F - 23.0 °F 92% 30.38 in 5.0 mi Calm Calm - N/A   Mostly Cloudy
4:55 AM 26.6 °F - 24.8 °F 93% 30.39 in 5.0 mi Calm Calm - N/A   Overcast
5:15 AM 26.1 °F 21.9 °F 24.1 °F 92% 30.38 in 5.0 mi South 3.5 mph - N/A   Mostly Cloudy
5:35 AM 26.4 °F 22.4 °F 24.4 °F 92% 30.38 in 5.0 mi South 3.5 mph - N/A   Overcast
5:55 AM 27.1 °F - 25.2 °F 92% 30.38 in 5.0 mi Calm Calm - N/A   Overcast
6:15 AM 26.4 °F 20.9 °F 24.3 °F 92% 30.38 in 5.0 mi South 4.6 mph - N/A   Overcast
7:15 AM 27.7 °F 23.8 °F 25.7 °F 92% 30.38 in 4.0 mi South 3.5 mph - N/A   Overcast
7:35 AM 27.9 °F 24.0 °F 25.7 °F 92% 30.36 in 4.0 mi SE 3.5 mph - N/A   Overcast
7:55 AM 28.6 °F 23.5 °F 26.4 °F 92% 30.36 in 4.0 mi SSE 4.6 mph - N/A   Overcast
8:15 AM 29.8 °F 24.9 °F 27.5 °F 91% 30.36 in 4.0 mi South 4.6 mph - N/A   Overcast
8:35 AM 30.9 °F 24.3 °F 28.2 °F 90% 30.36 in 5.0 mi South 6.9 mph - N/A   Scattered Clouds
8:55 AM 31.6 °F 23.7 °F 27.1 °F 83% 30.36 in 7.0 mi South 9.2 mph - N/A   Clear
9:15 AM 32.0 °F 25.6 °F 27.3 °F 83% 30.37 in 7.0 mi South 6.9 mph - N/A   Clear
9:35 AM 32.4 °F 24.6 °F 27.0 °F 80% 30.37 in 10.0 mi South 9.2 mph - N/A   Clear
9:55 AM 32.4 °F 24.0 °F 26.6 °F 79% 30.37 in 10.0 mi SSW 10.4 mph - N/A   Clear
10:15 AM 34.7 °F 27.5 °F 28.0 °F 77% 30.36 in 10.0 mi SSW 9.2 mph - N/A   Scattered Clouds
10:35 AM 34.2 °F 25.7 °F 27.3 °F 76% 30.36 in 10.0 mi SSW 11.5 mph - N/A   Overcast
10:55 AM 34.7 °F 27.5 °F 27.9 °F 76% 30.34 in 10.0 mi South 9.2 mph - N/A   Overcast
11:15 AM 35.6 °F 28.6 °F 27.7 °F 73% 30.33 in 10.0 mi South 9.2 mph - N/A   Mostly Cloudy
11:35 AM 37.4 °F 30.8 °F 27.7 °F 68% 30.32 in 10.0 mi South 9.2 mph - N/A   Scattered Clouds
11:55 AM 37.6 °F 33.1 °F 27.3 °F 66% 30.30 in 10.0 mi South 5.8 mph - N/A   Mostly Cloudy
12:15 PM 38.7 °F 31.8 °F 27.3 °F 64% 30.29 in 10.0 mi South 10.4 mph - N/A   Scattered Clouds
12:35 PM 39.6 °F 34.0 °F 28.4 °F 64% 30.29 in 10.0 mi SSW 8.1 mph - N/A   Clear
1:15 PM 40.3 °F 33.4 °F 28.8 °F 63% 30.27 in 10.0 mi South 11.5 mph 18.4 mph N/A   Scattered Clouds
1:35 PM 41.0 °F 34.3 °F 29.5 °F 64% 30.27 in 10.0 mi SSW 11.5 mph - N/A   Clear
1:55 PM 41.0 °F 33.9 °F 29.3 °F 63% 30.25 in 10.0 mi SSW 12.7 mph 18.4 mph N/A   Clear
2:15 PM 41.0 °F 34.3 °F 29.8 °F 64% 30.25 in 10.0 mi SSW 11.5 mph - N/A   Clear
2:35 PM 40.5 °F 32.8 °F 29.5 °F 65% 30.25 in 10.0 mi South 13.8 mph - N/A   Clear
2:55 PM 41.0 °F 34.3 °F 30.6 °F 66% 30.25 in 10.0 mi SSW 11.5 mph - N/A   Clear
3:15 PM 41.0 °F 34.3 °F 30.0 °F 65% 30.26 in 10.0 mi SSW 11.5 mph - N/A   Scattered Clouds
3:35 PM 40.1 °F 34.7 °F 30.4 °F 68% 30.26 in 10.0 mi SSW 8.1 mph - N/A   Mostly Cloudy
3:55 PM 39.0 °F 33.4 °F 30.9 °F 73% 30.26 in 10.0 mi SSW 8.1 mph - N/A   Scattered Clouds
4:15 PM 39.2 °F 34.2 °F 31.1 °F 73% 30.27 in 10.0 mi SSW 6.9 mph - N/A   Overcast
4:35 PM 38.5 °F 35.0 °F 31.6 °F 76% 30.27 in 10.0 mi SSW 4.6 mph - N/A   Overcast
4:55 PM 38.3 °F 33.9 °F 32.0 °F 78% 30.27 in 10.0 mi SW 5.8 mph - N/A   Overcast
5:15 PM 39.2 °F 33.6 °F 32.0 °F 75% 30.28 in 10.0 mi WSW 8.1 mph - N/A   Overcast
5:35 PM 39.2 °F 33.0 °F 32.0 °F 75% 30.29 in 10.0 mi WSW 9.2 mph - N/A   Overcast
6:15 PM 39.2 °F 32.5 °F 32.0 °F 75% 30.29 in 10.0 mi West 10.4 mph - N/A   Overcast
6:35 PM 39.0 °F 34.8 °F 32.0 °F 76% 30.29 in 10.0 mi West 5.8 mph - N/A   Overcast
6:55 PM 38.5 °F 34.1 °F 32.0 °F 78% 30.30 in 10.0 mi West 5.8 mph - N/A   Overcast
7:35 PM 35.2 °F 30.3 °F 30.6 °F 83% 30.29 in 10.0 mi WSW 5.8 mph - N/A   Mostly Cloudy
7:55 PM 34.3 °F 29.2 °F 30.2 °F 85% 30.29 in 10.0 mi WSW 5.8 mph - N/A   Scattered Clouds
8:15 PM 32.9 °F 26.7 °F 29.5 °F 87% 30.30 in 10.0 mi WSW 6.9 mph - N/A   Scattered Clouds
8:35 PM 33.1 °F 26.1 °F 29.5 °F 87% 30.30 in 10.0 mi WSW 8.1 mph - N/A   Clear
8:55 PM 32.9 °F 26.7 °F 29.7 °F 88% 30.30 in 10.0 mi SW 6.9 mph - N/A   Clear
9:15 PM 32.5 °F 28.1 °F 29.3 °F 88% 30.30 in 10.0 mi SSW 4.6 mph - N/A   Clear
9:35 PM 32.0 °F 28.7 °F 29.1 °F 89% 30.30 in 7.0 mi SW 3.5 mph - N/A   Clear
9:55 PM 31.8 °F 28.5 °F 28.8 °F 88% 30.31 in 10.0 mi SW 3.5 mph - N/A   Clear
10:15 PM 31.1 °F - 28.4 °F 90% 30.31 in 7.0 mi Calm Calm - N/A   Clear
10:35 PM 31.1 °F 26.4 °F 28.2 °F 89% 30.30 in 7.0 mi SSW 4.6 mph - N/A   Clear
10:55 PM 31.6 °F 28.3 °F 28.4 °F 88% 30.30 in 7.0 mi SSW 3.5 mph - N/A   Clear
11:15 PM 31.3 °F 27.9 °F 28.2 °F 88% 30.30 in 7.0 mi SW 3.5 mph - N/A   Clear
11:35 PM 30.4 °F 25.6 °F 27.7 °F 90% 30.31 in 7.0 mi SW 4.6 mph - N/A   Clear
11:55 PM 29.8 °F 24.9 °F 27.3 °F 90% 30.30 in 7.0 mi SSW 4.6 mph - N/A   Clear